Retour au catalogue

STARLINK-34831

ActifCommunicationsVLEO
NORAD 65345·PAYLOAD·🇺🇸 United States

Lancé Aug 27, 2025 depuis Cape Canaveral Space Force Station

Loading…

Prochains Passages (prochaines 24 heures)

TLE

FraisSource: CelesTrak SupGP

Époque: Sep 15, 2026, 03:50 UTC

1 65345C 25189Y   26258.16020833  .00008970  00000+0  28852-3 0  2583
2 65345  53.1593  45.3544 0001111  87.0703 289.6000 15.31690410    11

Suivez STARLINK-34831 en temps réel avec AllMySat

Download on the App Store